Weather History for KPSX - October, 2011

Change the Weather History Date:

Monday, October 17, 2011

  Actual Average Record
Temperature  
Mean Temperature 74 °F -  
Max Temperature 84 °F 81 °F 91 °F (1950)
Min Temperature 64 °F 62 °F 46 °F (1974)
Cooling Degree Days 9    
Growing Degree Days 24 (Base 50)    
Moisture  
Dew Point 68 °F    
Average Humidity 91    
Maximum Humidity 100    
Minimum Humidity 65    
Precipitation  
Precipitation 0.01 in - - ()
Sea Level Pressure  
Sea Level Pressure 29.89 in    
Wind  
Wind Speed 5 mph (East)    
Max Wind Speed 14 mph    
Max Gust Speed -    
Visibility 6 miles    
Events Fog    
Averages and records for this station are not official NWS values.
T = Trace of Precipitation, MM = Missing Value Source: NWS Daily Summary

Daily Weather History Graph

Daily Weather History Graph

Search for Another Location

Airport or City:

Trip Planner

Search our weather history database for the weather conditions in past years. The results will help you decide how hot, cold, wet, or windy it might be!

Date:

Astronomy

Oct. 17, 2011 Rise Set
Actual Time 7:26 AM CDT 6:53 PM CDT
Civil Twilight 7:03 AM CDT 7:17 PM CDT
Nautical Twilight 6:35 AM CDT 7:44 PM CDT
Astronomical Twilight 6:08 AM CDT 8:12 PM CDT
Moon 10:54 PM CDT (10/17) 12:14 PM CDT (10/17)
Length of Visible Light 12h 14m
Length of Day
11h 26m
Waning Gibbous, 74% of the Moon is Illuminated
Oct 17
Waning Gibbous
Oct 19
Last Quarter
Oct 26
New
Nov 2
First Quarter
Nov 10
Full

Hourly Weather History & Observations

Time (CDT) Temp. Heat Index Dew Point Humidity Pressure Visibility Wind Dir Wind Speed Gust Speed Precip Events Conditions
12:53 AM 69.1 °F - 68.0 °F 96% 29.97 in 10.0 mi Calm Calm - N/A   Clear
1:53 AM 68.0 °F - 68.0 °F 100% 29.97 in 7.0 mi Calm Calm - N/A   Clear
2:53 AM 66.9 °F - 66.9 °F 100% 29.96 in 5.0 mi ENE 3.5 mph - N/A   Clear
3:53 AM 66.9 °F - 66.9 °F 100% 29.94 in 7.0 mi NE 3.5 mph - N/A   Clear
4:11 AM 66.2 °F - 66.2 °F 100% 29.94 in 2.5 mi NE 4.6 mph - N/A   Scattered Clouds
4:16 AM 66.2 °F - 66.2 °F 100% 29.94 in 1.8 mi NE 4.6 mph - N/A   Mostly Cloudy
4:24 AM 64.4 °F - 64.4 °F 100% 29.94 in 3.0 mi NE 4.6 mph - N/A   Mostly Cloudy
4:53 AM 66.2 °F - 66.2 °F 100% 29.94 in 5.0 mi NNE 4.6 mph - N/A   Overcast
5:00 AM 66.2 °F - 66.2 °F 100% 29.93 in 1.8 mi NNE 4.6 mph - N/A   Overcast
5:06 AM 66.2 °F - 66.2 °F 100% 29.93 in 0.5 mi NE 4.6 mph - N/A Fog Fog
5:20 AM 66.2 °F - 66.2 °F 100% 29.93 in 1.0 mi ENE 4.6 mph - N/A   Mist
5:33 AM 66.2 °F - 66.2 °F 100% 29.93 in 2.5 mi ENE 4.6 mph - N/A   Overcast
5:46 AM 66.2 °F - 66.2 °F 100% 29.92 in 4.0 mi ENE 4.6 mph - N/A   Overcast
5:53 AM 66.0 °F - 66.0 °F 100% 29.93 in 3.0 mi ENE 4.6 mph - N/A   Mostly Cloudy
5:57 AM 64.4 °F - 64.4 °F 100% 29.92 in 1.8 mi ENE 4.6 mph - N/A   Mostly Cloudy
6:06 AM 64.4 °F - 64.4 °F 100% 29.93 in 3.0 mi NE 4.6 mph - N/A   Mostly Cloudy
6:14 AM 64.4 °F - 64.4 °F 100% 29.93 in 6.0 mi NE 4.6 mph - N/A   Scattered Clouds
6:53 AM 64.0 °F - 64.0 °F 100% 29.93 in 7.0 mi ENE 4.6 mph - 0.01 in   Partly Cloudy
6:57 AM 64.4 °F - 64.4 °F 100% 29.93 in 2.5 mi ENE 4.6 mph - N/A   Scattered Clouds
6:59 AM 64.4 °F - 64.4 °F 100% 29.93 in 1.0 mi ENE 4.6 mph - N/A   Mist
7:06 AM 64.4 °F - 64.4 °F 100% 29.93 in 0.2 mi NE 4.6 mph - N/A Fog Fog
7:21 AM 64.4 °F - 64.4 °F 100% 29.93 in 2.0 mi ENE 5.8 mph - N/A   Overcast
7:29 AM 64.4 °F - 64.4 °F 100% 29.93 in 3.0 mi NE 5.8 mph - N/A   Mostly Cloudy
7:45 AM 64.4 °F - 64.4 °F 100% 29.93 in 5.0 mi ENE 5.8 mph - N/A   Scattered Clouds
7:53 AM 66.0 °F - 66.0 °F 100% 29.94 in 6.0 mi East 3.5 mph - N/A   Partly Cloudy
8:53 AM 73.0 °F - 73.0 °F 100% 29.93 in 10.0 mi East 4.6 mph - N/A   Clear
9:53 AM 80.1 °F 83.8 °F 72.0 °F 76% 29.94 in 10.0 mi SE 6.9 mph - N/A   Clear
10:53 AM 82.0 °F 86.7 °F 72.0 °F 71% 29.93 in 10.0 mi SSE 8.1 mph - N/A   Clear
11:53 AM 82.9 °F 88.0 °F 72.0 °F 69% 29.91 in 10.0 mi South 10.4 mph - N/A   Clear
12:53 PM 82.9 °F 88.0 °F 72.0 °F 69% 29.88 in 10.0 mi SSE 13.8 mph - N/A   Clear
1:53 PM 84.0 °F 89.0 °F 71.1 °F 65% 29.85 in 10.0 mi South 12.7 mph - N/A   Clear
2:53 PM 82.9 °F 87.5 °F 71.1 °F 67% 29.82 in 10.0 mi South 12.7 mph - N/A   Clear
3:53 PM 84.0 °F 89.0 °F 71.1 °F 65% 29.79 in 10.0 mi South 11.5 mph - N/A   Clear
4:53 PM 82.9 °F 87.5 °F 71.1 °F 67% 29.78 in 10.0 mi SSE 13.8 mph - N/A   Clear
5:53 PM 82.0 °F 86.7 °F 72.0 °F 71% 29.77 in 10.0 mi South 12.7 mph - N/A   Clear
6:53 PM 78.8 °F - 71.6 °F 78% 29.77 in 10.0 mi South 8.1 mph - N/A   Clear
7:53 PM 77.0 °F - 72.0 °F 84% 29.78 in 10.0 mi SSE 9.2 mph - N/A   Clear
8:53 PM 75.9 °F - 72.0 °F 87% 29.78 in 10.0 mi SE 8.1 mph - N/A   Clear
9:53 PM 75.0 °F - 72.0 °F 90% 29.78 in 10.0 mi SSE 8.1 mph - N/A   Unknown
10:53 PM 77.0 °F - 72.0 °F 84% 29.75 in 10.0 mi SSE 13.8 mph - N/A   Clear
11:53 PM 77.0 °F - 71.1 °F 82% 29.72 in 10.0 mi SSE 13.8 mph - N/A   Clear